Weather History for Farmington, MO

Change the Weather History Date:

Sunday, January 6, 2013

  Actual Average Record
Temperature  
Mean Temperature 30 °F -  
Max Temperature 39 °F 39 °F 66 °F (2008)
Min Temperature 19 °F 24 °F -7 °F (2014)
Degree Days  
Heating Degree Days 35    
Moisture  
Dew Point 23 °F    
Average Humidity 68    
Maximum Humidity 93    
Minimum Humidity 48    
Precipitation  
Precipitation 0.00 in - - ()
Sea Level Pressure  
Sea Level Pressure 30.25 in    
Wind  
Wind Speed 8 mph (WNW)    
Max Wind Speed 16 mph    
Max Gust Speed 24 mph    
Visibility 10 miles    
Events      
Averages and records for this station are not official NWS values.
T = Trace of Precipitation, MM = Missing Value Source: NWS Daily Summary

Daily Weather History Graph

Daily Weather History Graph

Search for Another Location

Airport:

Trip Planner

Search our weather history database for the weather conditions in past years. The results will help you decide how hot, cold, wet, or windy it might be!

Date:

Astronomy

Jan. 06, 2013 Rise Set
Actual Time 7:17 AM CST 4:58 PM CST
Civil Twilight 6:48 AM CST 5:27 PM CST
Nautical Twilight 6:15 AM CST 5:59 PM CST
Astronomical Twilight 5:43 AM CST 6:31 PM CST
Moon 1:34 AM CST (1/6) 12:23 PM CST (1/6)
Length of Visible Light 10h 38m
Length of Day
9h 40m
Waning Crescent, 33% of the Moon is Illuminated
Jan 6
Waning Crescent
Jan 11
New
Jan 18
First Quarter
Jan 26
Full
Feb 3
Last Quarter

Hourly Weather History & Observations

Time (CST) Temp. Windchill Dew Point Humidity Pressure Visibility Wind Dir Wind Speed Gust Speed Precip Events Conditions
12:15 AM 37.4 °F 32.1 °F 28.4 °F 70% 30.16 in 10.0 mi South 6.9 mph - N/A   Overcast
12:35 AM 35.6 °F 29.2 °F 28.4 °F 75% 30.15 in 10.0 mi South 8.1 mph - N/A   Overcast
12:55 AM 35.6 °F 29.2 °F 28.4 °F 75% 30.14 in 10.0 mi SSW 8.1 mph - N/A   Mostly Cloudy
1:15 AM 35.6 °F 29.2 °F 28.4 °F 75% 30.14 in 10.0 mi SSW 8.1 mph - N/A   Mostly Cloudy
1:35 AM 35.6 °F 29.9 °F 28.4 °F 75% 30.14 in 10.0 mi SSW 6.9 mph - N/A   Mostly Cloudy
1:55 AM 35.6 °F 28.0 °F 28.4 °F 75% 30.14 in 10.0 mi SSW 10.4 mph - N/A   Partly Cloudy
2:15 AM 35.6 °F 29.9 °F 28.4 °F 75% 30.14 in 10.0 mi SW 6.9 mph - N/A   Clear
2:35 AM 35.6 °F 28.0 °F 28.4 °F 75% 30.14 in 10.0 mi WSW 10.4 mph - N/A   Clear
2:55 AM 37.4 °F 30.8 °F 28.4 °F 70% 30.13 in 10.0 mi WSW 9.2 mph 16.1 mph N/A   Clear
3:15 AM 37.4 °F 31.4 °F 28.4 °F 70% 30.13 in 10.0 mi West 8.1 mph 16.1 mph N/A   Clear
3:35 AM 37.4 °F 30.8 °F 28.4 °F 70% 30.13 in 10.0 mi West 9.2 mph - N/A   Clear
3:55 AM 35.6 °F 29.2 °F 28.4 °F 75% 30.13 in 10.0 mi West 8.1 mph - N/A   Clear
4:15 AM 35.6 °F 29.9 °F 28.4 °F 75% 30.13 in 10.0 mi West 6.9 mph - N/A   Clear
4:35 AM 35.6 °F 30.7 °F 26.6 °F 70% 30.13 in 10.0 mi West 5.8 mph - N/A   Clear
4:55 AM 35.6 °F 29.9 °F 26.6 °F 70% 30.12 in 10.0 mi West 6.9 mph - N/A   Clear
5:15 AM 33.8 °F 28.6 °F 26.6 °F 75% 30.12 in 10.0 mi West 5.8 mph - N/A   Clear
5:35 AM 33.8 °F 29.6 °F 26.6 °F 75% 30.13 in 10.0 mi West 4.6 mph - N/A   Clear
5:55 AM 33.8 °F 28.6 °F 26.6 °F 75% 30.14 in 10.0 mi WNW 5.8 mph - N/A   Clear
6:15 AM 33.8 °F 27.7 °F 26.6 °F 75% 30.15 in 10.0 mi WNW 6.9 mph - N/A   Clear
6:35 AM 33.8 °F 26.4 °F 26.6 °F 75% 30.16 in 10.0 mi WNW 9.2 mph - N/A   Clear
6:55 AM 32.0 °F 24.2 °F 26.6 °F 80% 30.17 in 10.0 mi WNW 9.2 mph - N/A   Clear
7:15 AM 32.0 °F 23.6 °F 26.6 °F 80% 30.18 in 10.0 mi WNW 10.4 mph 17.3 mph N/A   Partly Cloudy
7:35 AM 32.0 °F 22.5 °F 24.8 °F 75% 30.18 in 10.0 mi WNW 12.7 mph 19.6 mph N/A   Mostly Cloudy
7:55 AM 32.0 °F 22.5 °F 24.8 °F 75% 30.19 in 10.0 mi NW 12.7 mph 24.2 mph N/A   Overcast
8:15 AM 32.0 °F 23.0 °F 24.8 °F 75% 30.21 in 10.0 mi WNW 11.5 mph 21.9 mph N/A   Overcast
8:35 AM 32.0 °F 22.5 °F 23.0 °F 69% 30.21 in 10.0 mi WNW 12.7 mph 20.7 mph N/A   Overcast
8:55 AM 30.2 °F 19.8 °F 23.0 °F 75% 30.23 in 10.0 mi WNW 13.8 mph 19.6 mph N/A   Overcast
9:15 AM 30.2 °F 20.2 °F 23.0 °F 75% 30.24 in 10.0 mi NNW 12.7 mph - N/A   Overcast
9:35 AM 30.2 °F 20.8 °F 21.2 °F 69% 30.25 in 10.0 mi NW 11.5 mph 17.3 mph N/A   Overcast
9:55 AM 30.2 °F 19.3 °F 21.2 °F 69% 30.26 in 10.0 mi NW 15.0 mph 20.7 mph N/A   Overcast
10:15 AM 30.2 °F 21.9 °F 21.2 °F 69% 30.26 in 10.0 mi WNW 9.2 mph - N/A   Overcast
10:35 AM 32.0 °F 21.2 °F 21.2 °F 64% 30.27 in 10.0 mi NW 16.1 mph 19.6 mph N/A   Overcast
10:55 AM 33.8 °F 25.3 °F 21.2 °F 60% 30.26 in 10.0 mi NW 11.5 mph - N/A   Overcast
11:15 AM 33.8 °F 24.3 °F 21.2 °F 60% 30.26 in 10.0 mi NW 13.8 mph 18.4 mph N/A   Scattered Clouds
11:35 AM 33.8 °F 24.8 °F 23.0 °F 65% 30.26 in 10.0 mi NW 12.7 mph 20.7 mph N/A   Scattered Clouds
11:55 AM 33.8 °F 24.8 °F 21.2 °F 60% 30.25 in 10.0 mi WNW 12.7 mph 19.6 mph N/A   Partly Cloudy
12:15 PM 35.6 °F 25.9 °F 23.0 °F 60% 30.26 in 10.0 mi WNW 16.1 mph 21.9 mph N/A   Clear
12:35 PM 35.6 °F 28.6 °F 23.0 °F 60% 30.25 in 10.0 mi NW 9.2 mph 21.9 mph N/A   Clear
12:55 PM 37.4 °F 29.3 °F 23.0 °F 56% 30.26 in 10.0 mi WNW 12.7 mph 18.4 mph N/A   Clear
1:15 PM 37.4 °F 30.3 °F 23.0 °F 56% 30.26 in 10.0 mi NW 10.4 mph 18.4 mph N/A   Clear
1:35 PM 37.4 °F 30.3 °F 24.8 °F 60% 30.26 in 10.0 mi NW 10.4 mph - N/A   Clear
1:55 PM 37.4 °F 30.3 °F 23.0 °F 56% 30.27 in 10.0 mi WNW 10.4 mph 16.1 mph N/A   Clear
2:15 PM 37.4 °F 30.3 °F 21.2 °F 52% 30.28 in 10.0 mi NW 10.4 mph - N/A   Clear
2:35 PM 39.2 °F 32.5 °F 23.0 °F 52% 30.29 in 10.0 mi WNW 10.4 mph - N/A   Clear
2:55 PM 39.2 °F 32.0 °F 21.2 °F 49% 30.29 in 10.0 mi NW 11.5 mph - N/A   Clear
3:15 PM 39.2 °F 32.0 °F 21.2 °F 49% 30.30 in 10.0 mi WNW 11.5 mph 16.1 mph N/A   Clear
3:35 PM 39.2 °F 32.0 °F 21.2 °F 49% 30.31 in 10.0 mi NW 11.5 mph 16.1 mph N/A   Clear
3:55 PM 39.2 °F 33.0 °F 21.2 °F 49% 30.32 in 10.0 mi WNW 9.2 mph - N/A   Clear
4:35 PM 37.4 °F 32.1 °F 19.4 °F 48% 30.32 in 10.0 mi NW 6.9 mph - N/A   Clear
4:55 PM 35.6 °F 30.7 °F 19.4 °F 52% 30.33 in 10.0 mi NW 5.8 mph - N/A   Clear
5:15 PM 33.8 °F 29.6 °F 19.4 °F 56% 30.34 in 10.0 mi NW 4.6 mph - N/A   Clear
5:35 PM 33.8 °F 30.8 °F 21.2 °F 60% 30.34 in 10.0 mi NNW 3.5 mph - N/A   Clear
5:55 PM 33.8 °F 29.6 °F 19.4 °F 56% 30.35 in 10.0 mi NNW 4.6 mph - N/A   Clear
6:15 PM 33.8 °F 30.8 °F 17.6 °F 52% 30.36 in 10.0 mi NNW 3.5 mph - N/A   Clear
6:35 PM 33.8 °F 30.8 °F 17.6 °F 52% 30.36 in 10.0 mi NNW 3.5 mph - N/A   Clear
6:55 PM 28.4 °F - 21.2 °F 74% 30.36 in 10.0 mi Calm Calm - N/A   Clear
7:15 PM 30.2 °F - 17.6 °F 60% 30.36 in 10.0 mi Calm Calm - N/A   Clear
7:35 PM 26.6 °F - 17.6 °F 69% 30.36 in 10.0 mi Calm Calm - N/A   Clear
7:55 PM 24.8 °F - 19.4 °F 80% 30.36 in 10.0 mi Calm Calm - N/A   Clear
8:15 PM 26.6 °F - 19.4 °F 74% 30.36 in 10.0 mi Calm Calm - N/A   Clear
8:35 PM 26.6 °F - 19.4 °F 74% 30.37 in 10.0 mi Calm Calm - N/A   Clear
8:55 PM 24.8 °F - 17.6 °F 74% 30.37 in 10.0 mi Calm Calm - N/A   Clear
9:15 PM 24.8 °F - 19.4 °F 80% 30.37 in 10.0 mi Calm Calm - N/A   Clear
9:55 PM 24.8 °F - 21.2 °F 86% 30.38 in 10.0 mi Calm Calm - N/A   Clear
10:15 PM 24.8 °F - 19.4 °F 80% 30.38 in 10.0 mi Calm Calm - N/A   Clear
10:35 PM 23.0 °F - 19.4 °F 86% 30.38 in 10.0 mi Calm Calm - N/A   Clear
10:55 PM 21.2 °F - 17.6 °F 86% 30.38 in 10.0 mi Calm Calm - N/A   Clear
11:35 PM 21.2 °F - 17.6 °F 86% 30.38 in 10.0 mi Calm Calm - N/A   Clear
11:55 PM 19.4 °F - 17.6 °F 93% 30.39 in 8.0 mi Calm Calm - N/A   Clear